GW0421 Weather Reports


time (UTC)temp
F
wind
direction
speed
knots
gust
knots
rain 1hr
in
rain 24hr
in
rain mn
in
humidity
%
barometer
mb
20260906195602 91 94 6.1 8.7 0.00 0.00 0.00 47 1014.0
20260906195017 91 109 6.1 8.7 0.00 0.00 0.00 48 1014.1
20260906194654 91 82 4.3 8.7 0.00 0.00 0.00 48 1014.1
20260906194034 91 92 5.2 8.7 0.00 0.00 0.00 48 1014.2
20260906193542 91 98 2.6 7.0 0.00 0.00 0.00 48 1014.5
20260906193124 91 106 3.5 7.0 0.00 0.00 0.00 48 1014.6
20260906192719 91 58 3.5 7.0 0.00 0.00 0.00 47 1014.7
20260906192024 91 94 3.5 7.8 0.00 0.00 0.00 47 1014.7
20260906191640 91 63 0.9 9.6 0.00 0.00 0.00 47 1014.7
20260906191041 91 101 2.6 9.6 0.00 0.00 0.00 46 1014.9
20260906190544 92 83 2.6 7.0 0.00 0.00 0.00 47 1015.0
20260906190217 92 103 2.6 7.0 0.00 0.00 0.00 46 1015.1
20260906185719 92 82 0.9 7.0 0.00 0.00 0.00 47 1015.2
20260906185032 91 40 0.0 3.5 0.00 0.00 0.00 49 1015.2
20260906184625 91 360 0.9 7.0 0.00 0.00 0.00 47 1015.4
20260906184038 91 67 0.9 7.0 0.00 0.00 0.00 47 1015.5
20260906183542 91 67 0.0 4.3 0.00 0.00 0.00 48 1015.6
20260906183127 91 65 0.9 5.2 0.00 0.00 0.00 47 1015.7
20260906182520 91 14 2.6 5.2 0.00 0.00 0.00 47 1015.8
20260906182042 91 61 0.9 7.8 0.00 0.00 0.00 48 1016.1
20260906181727 91 87 1.7 7.8 0.00 0.00 0.00 49 1016.1
20260906181020 90 101 2.6 5.2 0.00 0.00 0.00 50 1016.3
20260906180533 90 15 1.7 5.2 0.00 0.00 0.00 50 1016.2
20260906180219 90 347 0.9 8.7 0.00 0.00 0.00 50 1016.3
20260906175648 90 348 5.2 8.7 0.00 0.00 0.00 51 1016.3
20260906175035 89 83 1.7 5.2 0.00 0.00 0.00 53 1016.4
20260906174639 89 5 2.6 5.2 0.00 0.00 0.00 52 1016.4
20260906174116 89 32 0.9 7.0 0.00 0.00 0.00 52 1016.5
20260906173523 89 84 0.9 7.0 0.00 0.00 0.00 52 1016.7
20260906173219 89 331 0.9 5.2 0.00 0.00 0.00 51 1016.8
20260906172544 89 319 2.6 7.8 0.00 0.00 0.00 51 1016.8
20260906172044 89 5 1.7 7.8 0.00 0.00 0.00 54 1016.8
20260906171816 88 5 1.7 5.2 0.00 0.00 0.00 54 1016.8
20260906171022 88 31 2.6 7.8 0.00 0.00 0.00 54 1016.8
20260906170519 89 346 4.3 7.8 0.00 0.00 0.00 53 1017.0
20260906170357 89 34 1.7 8.7 0.00 0.00 0.00 54 1017.1
20260906165525 89 113 2.6 8.7 0.00 0.00 0.00 54 1017.2
20260906165043 88 61 2.6 8.7 0.00 0.00 0.00 55 1017.3
20260906164658 88 57 1.7 6.1 0.00 0.00 0.00 55 1017.4
20260906164119 88 100 1.7 7.0 0.00 0.00 0.00 55 1017.4
20260906163532 88 36 1.7 7.0 0.00 0.00 0.00 56 1017.3
20260906163121 88 347 3.5 7.8 0.00 0.00 0.00 56 1017.3
20260906162654 87 348 3.5 8.7 0.00 0.00 0.00 57 1017.4
20260906162032 87 330 2.6 8.7 0.00 0.00 0.00 58 1017.4
20260906161658 86 81 4.3 8.7 0.00 0.00 0.00 59 1017.2
20260906161152 86 339 4.3 8.7 0.00 0.00 0.00 58 1017.3
20260906160523 85 315 2.6 9.6 0.00 0.00 0.00 59 1017.1
20260906160230 85 339 4.3 8.7 0.00 0.00 0.00 62 1017.0
20260906155719 84 82 0.9 7.0 0.00 0.00 0.00 63 1017.1
20260906155030 84 306 0.9 7.8 0.00 0.00 0.00 63 1017.1
20260906154637 83 14 3.5 8.7 0.00 0.00 0.00 64 1017.1
20260906154156 83 16 2.6 11.3 0.00 0.00 0.00 65 1017.1
20260906153519 83 341 4.3 8.7 0.00 0.00 0.00 66 1017.0
20260906153326 82 23 4.3 9.6 0.00 0.00 0.00 66 1016.9
20260906152534 82 325 4.3 12.2 0.00 0.00 0.00 65 1017.0
20260906152036 82 355 7.8 12.2 0.00 0.00 0.00 63 1017.2
20260906151955 82 348 4.3 8.7 0.00 0.00 0.00 63 1017.1
20260906151023 82 342 5.2 9.6 0.00 0.00 0.00 63 1017.0
20260906150527 82 349 5.2 10.4 0.00 0.00 0.00 63 1017.0
20260906150139 81 334 7.0 10.4 0.00 0.00 0.00 64 1016.9
20260906145656 81 360 5.2 8.7 0.00 0.00 0.00 64 1016.8
20260906145038 80 340 5.2 9.6 0.00 0.00 0.00 65 1016.8
20260906144826 80 245 6.1 9.6 0.00 0.00 0.00 65 1016.9
20260906144024 80 240 5.2 10.4 0.00 0.00 0.00 65 1017.0
20260906143541 80 248 5.2 13.0 0.00 0.00 0.00 65 1016.9
20260906143205 81 343 6.1 13.0 0.00 0.00 0.00 65 1016.9
20260906142530 82 334 7.8 11.3 0.00 0.00 0.00 65 1016.8
20260906142034 81 309 0.0 1.7 0.00 0.00 0.00 64 1016.4
20260906141750 81 196 0.0 0.9 0.00 0.00 0.00 66 1016.1
20260906141027 80 196 0.0 1.7 0.00 0.00 0.00 66 1016.3
20260906140527 80 186 0.0 0.0 0.00 0.00 0.00 69 1016.3
20260906140323 79 186 0.0 0.9 0.00 0.00 0.00 71 1016.2
20260906135525 78 186 0.0 1.7 0.00 0.00 0.00 72 1016.1
20260906135027 76 360 0.0 0.0 0.00 0.00 0.00 75 1016.1
20260906134654 76 103 0.0 0.0 0.00 0.00 0.00 76 1016.1
20260906134024 75 95 0.0 0.0 0.00 0.00 0.00 77 1016.0
20260906133539 75 94 0.0 0.0 0.00 0.00 0.00 78 1015.9
20260906133156 74 93 0.0 0.0 0.00 0.00 0.00 78 1015.8
20260906132720 74 360 0.0 0.0 0.00 0.00 0.00 79 1015.8
20260906132034 74 95 0.0 0.0 0.00 0.00 0.00 80 1015.8
20260906131724 73 96 0.0 0.0 0.00 0.00 0.00 80 1015.8
20260906131031 73 96 0.0 0.0 0.00 0.00 0.00 81 1015.6
20260906130533 72 96 0.0 0.0 0.00 0.00 0.00 81 1015.5
20260906130216 72 94 0.0 0.0 0.00 0.00 0.00 82 1015.3
20260906125637 71 101 0.0 0.0 0.00 0.00 0.00 83 1015.2
20260906125029 71 119 0.0 0.0 0.00 0.00 0.00 84 1015.1
20260906124633 70 134 0.0 0.0 0.00 0.00 0.00 83 1015.1
20260906124138 70 132 0.0 0.0 0.00 0.00 0.00 83 1015.1
20260906123524 69 130 0.0 0.0 0.00 0.00 0.00 83 1014.9
20260906123139 69 130 0.0 0.0 0.00 0.00 0.00 82 1014.7
20260906122527 69 130 0.0 0.0 0.00 0.00 0.00 82 1014.6
20260906122023 69 129 0.0 0.0 0.00 0.00 0.00 82 1014.6
20260906121821 69 129 0.0 0.0 0.00 0.00 0.00 82 1014.6
20260906121027 69 128 0.0 0.0 0.00 0.00 0.00 82 1014.5
20260906120538 69 129 0.0 0.0 0.00 0.00 0.00 82 1014.3
20260906120257 70 130 0.0 0.0 0.00 0.00 0.00 81 1014.3
20260906115517 70 129 0.0 0.0 0.00 0.00 0.00 81 1014.3
20260906115032 70 131 0.0 0.0 0.00 0.00 0.00 81 1014.2
20260906114619 70 131 0.0 0.9 0.00 0.00 0.00 81 1014.1
20260906114219 70 132 0.0 1.7 0.00 0.00 0.00 81 1014.0
20260906113524 70 132 0.0 1.7 0.00 0.00 0.00 81 1014.0
20260906113320 70 132 0.0 1.7 0.00 0.00 0.00 82 1013.8
20260906112530 70 133 0.0 1.7 0.00 0.00 0.00 82 1013.8
20260906112041 70 133 0.0 1.7 0.00 0.00 0.00 82 1013.7
20260906111718 70 133 0.0 1.7 0.00 0.00 0.00 82 1013.7
20260906111150 70 134 0.0 1.7 0.00 0.00 0.00 82 1013.7
20260906110524 70 129 0.0 1.7 0.00 0.00 0.00 83 1013.8
20260906110145 70 128 0.0 0.9 0.00 0.00 0.00 83 1013.7
20260906105650 70 128 0.0 1.7 0.00 0.00 0.00 83 1013.7
20260906105031 70 128 0.0 1.7 0.00 0.00 0.00 83 1013.8
20260906104720 70 129 0.0 1.7 0.00 0.00 0.00 83 1013.8
20260906104024 71 130 0.0 1.7 0.00 0.00 0.00 82 1013.8
20260906103532 71 129 0.0 0.0 0.00 0.00 0.00 82 1013.8
20260906103214 71 130 0.0 0.9 0.00 0.00 0.00 81 1014.0
20260906102741 71 131 0.0 0.9 0.00 0.00 0.00 81 1013.9
20260906102028 71 131 0.0 0.0 0.00 0.00 0.00 81 1013.9
20260906101645 72 132 0.0 0.0 0.00 0.00 0.00 82 1014.0
20260906101118 72 132 0.0 0.0 0.00 0.00 0.00 82 1014.0
20260906100532 72 132 0.0 0.0 0.00 0.00 0.00 82 1014.1
20260906100154 71 132 0.0 0.0 0.00 0.00 0.00 82 1014.0
20260906095617 71 130 0.0 0.0 0.00 0.00 0.00 83 1014.0
20260906095023 71 130 0.0 0.0 0.00 0.00 0.00 83 1014.0
20260906094718 71 130 0.0 0.0 0.00 0.00 0.00 82 1014.0
20260906094029 71 130 0.0 0.0 0.00 0.00 0.00 82 1014.0
20260906093529 72 131 0.0 0.0 0.00 0.00 0.00 82 1013.9
20260906093219 72 131 0.0 0.0 0.00 0.00 0.00 81 1013.9
20260906092526 72 132 0.0 0.0 0.00 0.00 0.00 81 1013.8
20260906092039 72 132 0.0 0.0 0.00 0.00 0.00 81 1013.7
20260906091629 72 132 0.0 0.0 0.00 0.00 0.00 80 1013.7
20260906091149 71 132 0.0 0.0 0.00 0.00 0.00 80 1013.7
20260906090530 71 132 0.0 0.0 0.00 0.00 0.00 80 1013.6
20260906090138 71 133 0.0 0.0 0.00 0.00 0.00 80 1013.5
20260906085539 71 132 0.0 0.0 0.00 0.00 0.00 80 1013.7
20260906085043 71 69 0.0 0.0 0.00 0.00 0.00 80 1013.7
20260906084750 71 63 0.0 0.0 0.00 0.00 0.00 81 1013.7
20260906084026 71 58 0.0 0.0 0.00 0.00 0.00 81 1013.6
20260906083532 71 56 0.0 0.0 0.00 0.00 0.00 81 1013.6
20260906083122 71 54 0.0 0.0 0.00 0.00 0.00 81 1013.6
20260906082523 71 53 0.0 0.0 0.00 0.00 0.00 80 1013.6
20260906082025 71 57 0.0 0.0 0.00 0.00 0.00 80 1013.4
20260906081826 71 57 0.0 0.9 0.00 0.00 0.00 80 1013.5
20260906081026 71 63 0.0 0.9 0.00 0.00 0.00 80 1013.6
20260906080543 71 65 0.0 0.9 0.00 0.00 0.00 80 1013.6
20260906080350 71 63 0.0 0.9 0.00 0.00 0.00 80 1013.5
20260906075517 71 61 0.0 0.0 0.00 0.00 0.00 80 1013.5
20260906075030 71 59 0.0 1.7 0.00 0.00 0.00 80 1013.5
20260906074627 71 63 0.0 0.9 0.00 0.00 0.00 80 1013.5
20260906074027 72 67 0.0 0.0 0.00 0.00 0.00 80 1013.6
20260906073531 72 73 0.0 0.0 0.00 0.00 0.00 79 1013.6
20260906073134 72 87 0.0 0.0 0.00 0.00 0.00 79 1013.6
20260906072730 72 78 0.0 0.0 0.00 0.00 0.00 79 1013.7
20260906072023 72 78 0.0 0.0 0.00 0.00 0.00 79 1013.5
20260906071840 72 78 0.0 0.0 0.00 0.00 0.00 79 1013.6
20260906071027 72 78 0.0 0.9 0.00 0.00 0.00 79 1013.6
20260906070535 72 76 0.0 0.9 0.00 0.00 0.00 80 1013.5
20260906070213 72 73 0.0 2.6 0.00 0.00 0.00 81 1013.5
20260906065742 72 76 0.0 2.6 0.00 0.00 0.00 82 1013.5
20260906065022 71 68 0.0 0.9 0.00 0.00 0.00 83 1013.5
20260906064834 71 67 0.0 0.9 0.00 0.00 0.00 83 1013.6
20260906064023 71 67 0.0 2.6 0.00 0.00 0.00 84 1013.6
20260906063532 71 65 0.0 2.6 0.00 0.00 0.00 85 1013.5
20260906063238 71 65 0.0 1.7 0.00 0.00 0.00 86 1013.6
20260906062523 71 55 0.0 1.7 0.00 0.00 0.00 86 1013.6
20260906062028 71 49 0.0 2.6 0.00 0.00 0.00 86 1013.4
20260906061818 71 48 0.0 2.6 0.00 0.00 0.00 86 1013.4
20260906061029 71 50 0.9 2.6 0.00 0.00 0.00 86 1013.5
20260906060539 71 51 0.9 2.6 0.00 0.00 0.00 86 1013.4
20260906060216 71 47 0.0 1.7 0.00 0.00 0.00 86 1013.4
20260906055709 71 46 0.0 1.7 0.00 0.00 0.00 86 1013.4
20260906055043 71 49 0.0 1.7 0.00 0.00 0.00 86 1013.4
20260906054714 71 50 0.0 0.9 0.00 0.00 0.00 86 1013.4
20260906054024 72 49 0.0 2.6 0.00 0.00 0.00 86 1013.3
20260906053523 72 49 0.0 2.6 0.00 0.00 0.00 87 1013.4
20260906053230 72 41 0.0 0.9 0.00 0.00 0.00 87 1013.5
20260906052537 71 87 0.0 0.9 0.00 0.00 0.00 87 1013.4
20260906052037 72 88 0.0 0.9 0.00 0.00 0.00 87 1013.4
20260906051718 72 88 0.0 0.0 0.00 0.00 0.00 86 1013.5
20260906051217 72 92 0.0 0.0 0.00 0.00 0.00 86 1013.5
20260906050517 72 94 0.0 0.0 0.00 0.00 0.00 86 1013.5
20260906050129 72 96 0.0 0.0 0.00 0.00 0.00 86 1013.5
20260906045533 72 111 0.0 0.0 0.00 0.00 0.00 85 1013.5
20260906045028 73 115 0.0 0.0 0.00 0.00 0.00 85 1013.5
20260906044657 73 120 0.0 0.9 0.00 0.00 0.00 85 1013.5
20260906044033 73 119 0.0 0.9 0.00 0.00 0.00 85 1013.7
20260906043530 73 119 0.0 0.0 0.00 0.00 0.00 85 1013.7
20260906043128 73 115 0.0 0.9 0.00 0.00 0.00 85 1013.6
20260906042646 73 109 0.0 0.9 0.00 0.00 0.00 85 1013.6
20260906042030 73 111 0.0 0.0 0.00 0.00 0.00 85 1013.7
20260906041740 73 124 0.0 0.0 0.00 0.00 0.00 84 1013.6
20260906041021 73 216 0.0 0.0 0.00 0.00 0.00 84 1013.5
20260906040539 73 217 0.0 0.0 0.00 0.00 0.00 84 1013.6
20260906040359 74 218 0.0 0.0 0.00 0.00 0.00 85 1013.7
20260906035523 74 219 0.0 0.0 0.00 0.00 0.00 85 1013.6
20260906035031 73 219 0.0 0.0 0.00 0.00 0.00 85 1013.5
20260906034658 73 218 0.0 0.0 0.00 0.00 0.00 85 1013.5
20260906034147 73 217 0.0 0.0 0.00 0.00 0.00 85 1013.5
20260906033528 73 218 0.0 0.0 0.00 0.00 0.00 85 1013.5
20260906033148 73 218 0.0 0.0 0.00 0.00 0.00 85 1013.6
20260906032530 73 219 0.0 0.0 0.00 0.00 0.00 85 1013.5
20260906032045 74 217 0.0 0.0 0.00 0.00 0.00 85 1013.4
20260906031632 74 219 0.0 0.0 0.00 0.00 0.00 85 1013.3
20260906031218 74 219 0.0 0.0 0.00 0.00 0.00 85 1013.4
20260906030532 74 217 0.0 1.7 0.00 0.00 0.00 84 1013.3
20260906030240 74 213 0.0 1.7 0.00 0.00 0.00 84 1013.3
20260906025532 74 157 0.0 0.9 0.00 0.00 0.00 84 1013.2
20260906025040 74 159 0.0 0.9 0.00 0.00 0.00 84 1013.0
20260906024720 75 160 0.0 0.9 0.00 0.00 0.00 83 1013.1
20260906024039 75 160 0.0 0.9 0.00 0.00 0.00 83 1013.0
20260906023539 74 161 0.0 0.9 0.00 0.00 0.00 83 1012.9
20260906023120 75 177 0.0 0.0 0.00 0.00 0.00 84 1012.9
20260906022528 75 178 0.0 0.0 0.00 0.00 0.00 84 1013.0
20260906022036 75 178 0.0 0.0 0.00 0.00 0.00 84 1012.9
20260906021731 75 179 0.0 1.7 0.00 0.00 0.00 84 1012.9
20260906021202 75 178 0.0 2.6 0.00 0.00 0.00 84 1012.8
20260906020529 75 189 0.0 2.6 0.00 0.00 0.00 84 1012.8
20260906020224 76 190 0.0 0.9 0.00 0.00 0.00 83 1012.5
20260906015712 76 76 0.0 0.0 0.00 0.00 0.00 83 1012.4
20260906015024 76 75 0.0 0.0 0.00 0.00 0.00 83 1012.4
20260906014628 76 76 0.0 0.0 0.00 0.00 0.00 83 1012.3
20260906014156 76 75 0.0 0.0 0.00 0.00 0.00 82 1012.3
20260906013521 76 76 0.0 0.0 0.00 0.00 0.00 81 1012.2
20260906013159 77 77 0.0 0.0 0.00 0.00 0.00 81 1012.3
20260906012718 77 71 0.0 0.0 0.00 0.00 0.00 80 1012.4
20260906012036 77 72 0.0 1.7 0.00 0.00 0.00 79 1012.3
20260906011628 78 71 0.0 1.7 0.00 0.00 0.00 78 1012.2
20260906011041 78 84 0.0 3.5 0.00 0.00 0.00 78 1012.3
20260906010543 78 60 0.0 3.5 0.00 0.00 0.00 78 1012.1
20260906010319 78 43 0.0 1.7 0.00 0.00 0.00 79 1012.3
20260906005531 79 55 0.0 2.6 0.00 0.00 0.00 79 1012.2
20260906005039 79 11 0.0 2.6 0.00 0.00 0.00 78 1012.0
20260906004958 79 49 0.0 3.5 0.00 0.00 0.00 79 1012.0
20260906004024 79 50 0.9 3.5 0.00 0.00 0.00 78 1011.8
20260906003524 79 204 0.0 3.5 0.00 0.00 0.00 80 1012.1
20260906003134 78 360 0.0 2.6 0.00 0.00 0.00 80 1012.0
20260906002543 78 145 0.0 0.9 0.00 0.00 0.00 79 1012.1
20260906002042 78 144 0.0 0.9 0.00 0.00 0.00 79 1012.2
20260906001619 78 150 0.0 1.7 0.00 0.00 0.00 77 1012.2
20260906001209 77 150 0.0 1.7 0.00 0.00 0.00 77 1012.2
20260906000521 77 155 0.0 4.3 0.00 0.00 0.00 76 1012.1
20260906000215 77 360 1.7 4.3 0.00 0.00 0.00 76 1012.2
20260905235645 77 148 0.9 2.6 0.00 0.00 0.00 76 1012.0
20260905235028 77 125 0.0 1.7 0.00 0.00 0.00 75 1011.8
20260905234646 77 141 0.9 3.5 0.00 0.00 0.00 74 1011.8
20260905234218 77 360 0.9 4.3 0.00 0.00 0.00 74 1012.0
20260905233529 77 360 0.0 7.0 0.00 0.00 0.00 74 1012.1
20260905233132 78 360 2.6 7.0 0.00 0.00 0.00 74 1012.1
20260905232617 78 156 3.5 7.0 0.00 0.00 0.00 73 1012.3
20260905232024 78 154 3.5 7.8 0.00 0.00 0.00 73 1012.5
20260905231745 79 176 3.5 8.7 0.00 0.00 0.00 72 1012.7
20260905231024 79 155 5.2 10.4 0.00 0.00 0.00 70 1012.9
20260905230532 80 167 5.2 13.0 0.00 0.00 0.00 69 1013.4
20260905230233 81 169 7.8 13.9 0.00 0.00 0.00 66 1013.7
20260905225733 82 180 7.8 11.3 0.00 0.00 0.00 63 1013.5
20260905225021 83 180 4.3 13.9 0.00 0.00 0.00 61 1013.5
20260905224851 84 271 7.8 13.9 0.00 0.00 0.00 58 1013.8
20260905224025 86 272 5.2 14.8 0.00 0.00 0.00 54 1013.9
20260905223526 89 259 7.8 14.8 0.00 0.00 0.00 49 1013.6
20260905223216 91 290 2.6 6.1 0.00 0.00 0.00 47 1013.1
20260905222616 92 121 0.0 1.7 0.00 0.00 0.00 46 1012.6
20260905222018 92 121 0.0 3.5 0.00 0.00 0.00 45 1012.2
20260905221642 93 108 1.7 7.0 0.00 0.00 0.00 44 1012.0
20260905221039 93 115 1.7 7.8 0.00 0.00 0.00 43 1012.0
20260905220543 93 118 3.5 10.4 0.00 0.00 0.00 42 1011.6
20260905220321 93 115 6.1 10.4 0.00 0.00 0.00 42 1011.7
20260905215525 93 128 2.6 7.0 0.00 0.00 0.00 42 1012.1
20260905215024 94 141 3.5 7.8 0.00 0.00 0.00 41 1012.3
20260905214701 94 132 4.3 7.8 0.00 0.00 0.00 40 1012.1
20260905214157 95 142 1.7 7.8 0.00 0.00 0.00 41 1012.2
20260905213525 96 127 3.5 9.6 0.00 0.00 0.00 38 1012.2
20260905213217 96 113 7.0 10.4 0.00 0.00 0.00 38 1012.2
20260905212700 96 122 6.1 10.4 0.00 0.00 0.00 38 1012.2
20260905212029 97 156 5.2 11.3 0.00 0.00 0.00 38 1012.0
20260905211637 98 115 6.1 12.2 0.00 0.00 0.00 37 1012.0
20260905211057 98 122 7.0 12.2 0.00 0.00 0.00 36 1012.0
20260905210524 98 112 6.1 11.3 0.00 0.00 0.00 38 1011.9
20260905210225 98 138 6.1 11.3 0.00 0.00 0.00 38 1012.4
20260905205618 97 123 5.2 10.4 0.00 0.00 0.00 38 1012.6
20260905205029 97 142 4.3 11.3 0.00 0.00 0.00 38 1012.6
20260905204720 97 121 6.1 11.3 0.00 0.00 0.00 39 1012.8
20260905204216 97 121 4.3 9.6 0.00 0.00 0.00 39 1012.8
20260905203523 97 126 6.1 11.3 0.00 0.00 0.00 40 1012.8
20260905203125 96 137 6.1 13.0 0.00 0.00 0.00 39 1012.6
20260905202531 97 153 5.2 13.0 0.00 0.00 0.00 39 1012.7
20260905202043 97 151 5.2 11.3 0.00 0.00 0.00 40 1012.7
20260905201653 97 178 4.3 13.0 0.00 0.00 0.00 39 1012.9
20260905201137 97 121 7.8 13.0 0.00 0.00 0.00 38 1012.9
20260905200520 96 138 7.8 12.2 0.00 0.00 0.00 40 1013.1
20260905200331 96 173 7.8 10.4 0.00 0.00 0.00 40 1013.2